Regional Weather Roundup
Issued by NWS Charleston, SC

Current Version | Previous Version | Graphics & Text | Print | Product List | Glossary On
Versions: 1 2 3 4 5 6 7 8 9 10 11 12 13 14 15 16 17 18 19 20 21 22 23 24 25 26 27 28 29 30 31 32 33 34 35 36 37 38 39 40 41 42 43 44 45 46 47 48 49 50
000
ASUS42 KCHS 212010
RWRCHS
REGIONAL WEATHER ROUNDUP
NATIONAL WEATHER SERVICE CHARLESTON SC
400 PM EDT TUE OCT 21 2014

NOTE: "FAIR" INDICATES FEW OR NO CLOUDS BELOW 12,000 FEET WITH NO
SIGNIFICANT WEATHER AND/OR OBSTRUCTIONS TO VISIBILITY.

NOT ALL STATIONS ARE QUALITY CONTROLLED BY THE NATIONAL
WEATHER SERVICE. USE DATA WITH CAUTION...ESPECIALLY
DEWPOINT OBSERVATIONS.

SCZ027-030-031-034>040-042>050-212100-
...SOUTH CAROLINA...

CITY           SKY/WX    TMP DP  RH WIND       PRES   REMARKS
N CHARLESTON   SUNNY     80  53  39 W9        29.87F
WATERFRONT PRK   N/A     77 N/A N/A SW7         N/A
FORT JOHNSON   NOT AVBL
JOHNS ISLAND   CLEAR     79  57  47 SW8       29.87F
PINOPOLIS      NOT AVBL
MONCKS CORNER  FAIR      79  59  50 W3        29.86S
SUMMERVILLE    FAIR      79  54  41 W7        29.87F
BEAUFORT MCAS  SUNNY     79  54  41 W6        29.88F
BEAUFORT ARPT  FAIR      79  57  47 W9        29.88S
HILTON HEAD IS SUNNY     79  57  47 SW8       29.90F
GEORGETOWN     NOT AVBL
WALTERBORO     CLEAR     79  41  25 W12       29.88S
ORANGEBURG     SUNNY     79  44  28 W12       29.87F
BARNWELL       FAIR      81  45  28 NW8       29.87F
AIKEN          FAIR      77  52  41 W12G21    29.91F
MANNING        FAIR      79  50  36 W5        29.86S
KINGSTREE      NOT AVBL
COLUMBIA       SUNNY     79  44  28 W16       29.85F
SUMTER         SUNNY     78  47  32 W13G18    29.84F
FLORENCE       SUNNY     78  47  33 W12       29.84F
MYRTLE BEACH   MOSUNNY   79  54  41 W8        29.84F
N MYRTLE BEACH SUNNY     74  57  55 S12       29.84F

$$

GAZ063-065-086>088-099>101-113>116-118-119-134-136>141-150-212100-
...GEORGIA...

CITY           SKY/WX    TMP DP  RH WIND       PRES   REMARKS
SAVANNAH ARPT  SUNNY     80  52  37 W9        29.90F
HUNTER AAF     SUNNY     79  56  44 W10       29.88F
FORT STEWART   SUNNY     79  53  40 W9        29.89F
STATESBORO     NOT AVBL
SYLVANIA       CLEAR     83  51  33 NW15      29.89F
CLAXTON        FAIR      81  54  39 W5        29.90F
THOMSON        SUNNY     78  60  53 W6        29.94F
AUGUSTA-BUSH   SUNNY     81  43  26 NW15      29.88F
AUGUSTA-DANIEL SUNNY     78  47  33 W10G18    29.89F
SWAINSBORO     FAIR      82  50  32 W10G18    29.90F
VIDALIA        SUNNY     79  54  41 W7        29.91F
ALMA           SUNNY     81  50  33 NW8       29.92F
WAYCROSS       SUNNY     84  54  35 NW6       29.92S
JESUP          FAIR      82  55  39 W3        29.91F
BRUNSWICK      SUNNY     82  50  32 W8        29.91F
SAINT SIMONS   SUNNY     80  57  45 S8        29.90F

$$

SCZ027-028-034-036>038-045-046-048>050-GAZ119-141-212100-
...LAKE AND SUPPLEMENTAL COASTAL OBSERVATIONS...

STATION/POSITION TIME  TEMP    WIND        PRES    WAVE   SWELL
                       AIR SEA DIR/SP/G            HT/PER HT/PER/DIR
                 (UTC) (F)     (DEG/KT/KT) (MB)    (FT/S) (FT/S/D)
UPR LAKE MARION  NOT AVBL
WINYAH BAY       1900   76     250/  7     1011.0S
LAKE MURRAY      1900   75     250/ 11/ 15 1010.5F
ACE BASIN NERRS  1900   77     280/  3     1012.0F
FORT PULASKI     2000   76     280/  8/ 11 1012.4F
SAPELO ISLAND    NOT AVBL

$$

ANZ835-935-AMZ111-154-330-350-352-354-374-450-454-472-212100-
...C-MAN AND BUOY OBSERVATIONS...

STATION/POSITION TIME  TEMP    WIND        PRES    WAVE   SWELL
                       AIR SEA DIR/SP/G            HT/PER HT/PER/DIR
                 (UTC) (F)     (DEG/KT/KT) (MB)    (FT/S) (FT/S/D)
FOLLY BEACH CMAN 1900   76     220/  6/  9 1012.1F
BUOY 41004       2000   74 80  250/  6/  8 1011.6F   2/ 9   2/ 9
BUOY 41008       2000   74 77  150/  2/  4 1012.9F   2/ 8   2/ 90/ 8
5E ST. MARYS GA  2000      78                N/A     2/ 9   2/ 90/13
FRYING PAN BUOY  2000   72 76  230/  6/  8 1011.9F   2/ 8   2/110/ 8
BUOY 41025       2000   73     220/ 12/ 16 1010.8F   3/ 4   2/ 70/10
CAPE LOOKOUT NC  1900   72     200/  8/ 10 1011.0F
BUOY 41002       1915   76 80  170/  8/ 10 1012.5F   4/ 8   3/100/ 8
BUOY 41010       2000   77 80  180/  2/  2 1013.5S   2/ 9   2/ 70/ 9
BUOY 41012       NOT AVBL
ST AUGUSTINE FL  2000   76      40/  6/  7 1013.9S
CAPERS NEARSHORE 1900   75     250/ 10/ 10   N/A
FRIPP NEARSHORE  NOT AVBL


$$



USA.gov is the U.S. government's official web portal to all federal, state and local government web resources and services.